IRIDIUM 58

Last updated on Wed Nov 29 2017 00:19:02 GMT+0000 (Coordinated Universal Time)

1 25274U 98019C 17332.16538313 .00000176 00000-0 50934-4 0 9992 2 25274 86.4249 218.9570 0001737 91.2987 268.8411 14.38601659 29601

Satellite not in orbit

IRIDIUM 58